sat.trackr.live / text

‹ back to catalog

STARLINK-5465

NORAD 54775 · 2022-175T

PAYLOAD ACTIVE UNKNOWN

§ Identity

Operator
Country
US
Launch date
2022-12-17
Launch site
AFETR
Launch vehicle
Mass (kg)
RCS (m²)

Purposes: comms

External: N2YO · Heavens-Above · Gunter

§ Orbital elements

Epoch: 2026-09-20T15:46:56.569152Z

Period
93.85 min
Inclination
53.1585°
Eccentricity
0.0001750
Mean motion
15.34395713 rev/d
Perigee alt
461.5 km
Apogee alt
463.9 km
Semi-major
6,840.9 km
B*
-5.0674e-5
RAAN
236.9142°
Arg perigee
90.6632°
Mean anomaly
269.4571°
Rev number
20,951

§ Raw data

STARLINK-54651 54775U 22175T   26263.65759918 -.00002088  00000+0 -50674-4 0  99992 54775  53.1585 236.9142 0001750  90.6632 269.4571 15.34395713209515

JSON: /api/v1/satellites/54775 · /tle

For live sub-satellite position, see the globe view (requires WebGL).

§ Visibility from observer

Set your observer location to see the next 7 days of passes ≥ 10°. The values pass through the URL so the page stays shareable.

No JS? Fill the form by hand. The geolocation button needs JavaScript.